• Currently

    Reported at Minneapolis, Minneapolis-St. Paul International Airport, MN
    6:53 PM CST WED APR 26 2017
  • 39°F4°C
  • Drizzle
    Drizzle
  • Feels Like:33°F0°CDew Point:32°F0°CHumidity:75% Winds:N 12 mph 19 kph
    Pressure:29.56 in1001 hPaVisibility:10.00 miles16090.00 meters
Time Weather Temp Dew Point
Humidity Winds Visibility Pressure Precipitation
1 hr 24 hr
Thursday, April 27
19:53 19:53 Cloudy With Light Drizzle Cloudy With Light Drizzle 39°F4°C 32°F0°C 76% N 12 mphN 19 kph 10.0 miles16.1 km 29.56 in1001 hPa 0.00 in0.03 mm --
18:53 18:53 Cloudy Cloudy 40°F4°C 32°F0°C 73% NNW 12 mphNNW 19 kph 10.0 miles16.1 km 29.56 in1001 hPa 0.00 in0.00 mm --
17:53 17:53 Cloudy Cloudy 40°F4°C 32°F0°C 73% NNW 10 mphNNW 17 kph 10.0 miles16.1 km 29.56 in1001 hPa 0.00 in0.00 mm --
17:31 17:31 Cloudy Cloudy 40°F4°C 32°F0°C 73% N 14 mphN 22 kph 10.0 miles16.1 km 29.56 in1001 hPa 0.00 in0.00 mm --
17:19 17:19 Cloudy Cloudy 41°F5°C 32°F0°C 70% N 12 mphN 19 kph 10.0 miles16.1 km 29.56 in1001 hPa 0.00 in0.00 mm --
16:53 16:53 Cloudy Cloudy 41°F5°C 32°F0°C 70% NNW 10 mphNNW 17 kph 10.0 miles16.1 km 29.53 in1000 hPa 0.00 in0.00 mm --
15:53 15:53 Cloudy Cloudy 40°F4°C 32°F0°C 73% NNW 14 mphNNW 22 kph 10.0 miles16.1 km 29.56 in1001 hPa 0.00 in0.00 mm --
15:03 15:03 Cloudy Cloudy 39°F4°C 34°F1°C 81% NNW 13 mphNNW 20 kph 10.0 miles16.1 km 29.56 in1001 hPa 0.00 in0.00 mm --
14:53 14:53 Cloudy Cloudy 40°F4°C 33°F1°C 77% NNW 10 mphNNW 17 kph 10.0 miles16.1 km 29.56 in1001 hPa 0.00 in0.00 mm --
14:20 14:20 Cloudy Cloudy 39°F4°C 34°F1°C 81% NNW 10 mphNNW 17 kph 10.0 miles16.1 km 29.53 in1000 hPa 0.00 in0.00 mm --
13:53 13:53 Cloudy Cloudy 39°F4°C 34°F1°C 82% NNW 13 mphNNW 20 kph 10.0 miles16.1 km 29.53 in1000 hPa 0.00 in0.00 mm --
12:53 12:53 Cloudy Cloudy 39°F4°C 34°F1°C 82% NNE 14 mphNNE 22 kph 10.0 miles16.1 km 29.53 in1000 hPa 0.00 in0.00 mm --
11:53 11:53 Cloudy Cloudy 38°F3°C 33°F1°C 83% N 12 mphN 19 kph 10.0 miles16.1 km 29.53 in1000 hPa 0.00 in0.00 mm --
10:53 10:53 Cloudy Cloudy 37°F3°C 33°F1°C 86% N 13 mphN 20 kph 10.0 miles16.1 km 29.53 in1000 hPa 0.00 in0.03 mm --
09:53 09:53 Cloudy With Light Rain Cloudy With Light Rain 37°F3°C 33°F1°C 86% N 13 mphN 20 kph 10.0 miles16.1 km 29.5 in999 hPa 0.01 in6.45 mm --
08:53 08:53 Cloudy With Light Rain Cloudy With Light Rain 36°F2°C 33°F1°C 89% N 15 mphN 24 kph 9.0 miles14.5 km 29.5 in999 hPa 0.04 in25.81 mm --
08:14 08:14 Cloudy With Light Rain Cloudy With Light Rain 36°F2°C 34°F1°C 93% N 15 mphN 24 kph 7.0 miles11.3 km 29.5 in999 hPa 0.00 in0.00 mm --
07:53 07:53 Cloudy With Light Rain Cloudy With Light Rain 36°F2°C 33°F1°C 89% N 14 mphN 22 kph 7.0 miles11.3 km 29.5 in999 hPa 0.08 in51.61 mm --
07:15 07:15 Cloudy With Light Rain Cloudy With Light Rain 36°F2°C 33°F1°C 89% N 14 mphN 22 kph 7.0 miles11.3 km 29.5 in999 hPa 0.03 in19.35 mm --
06:53 06:53 Cloudy With Light Rain Cloudy With Light Rain 36°F2°C 33°F1°C 89% N 12 mphN 19 kph 7.0 miles11.3 km 29.5 in999 hPa 0.07 in45.16 mm --
06:09 06:09 Cloudy With Light Rain Cloudy With Light Rain 37°F3°C 35°F2°C 93% N 15 mphN 24 kph 9.0 miles14.5 km 29.47 in998 hPa 0.03 in19.35 mm --
05:53 05:53 Cloudy With Light Rain Cloudy With Light Rain 38°F3°C 35°F2°C 89% NNE 17 mphNNE 28 kph 9.0 miles14.5 km 29.47 in998 hPa 0.05 in32.26 mm --
04:53 04:53 Cloudy With Light Rain Cloudy With Light Rain 40°F4°C 37°F3°C 89% N 14 mphN 22 kph 10.0 miles16.1 km 29.47 in998 hPa 0.05 in32.26 mm --
03:53 03:53 Cloudy With Light Rain Cloudy With Light Rain 42°F6°C 39°F4°C 89% N 12 mphN 19 kph 9.0 miles14.5 km 29.47 in998 hPa 0.06 in38.71 mm --
02:53 02:53 Cloudy With Light Rain Cloudy With Light Rain 44°F7°C 41°F5°C 89% NNE 13 mphNNE 20 kph 10.0 miles16.1 km 29.5 in999 hPa 0.02 in12.90 mm --
01:53 01:53 Cloudy Cloudy 46°F8°C 42°F6°C 86% NNE 14 mphNNE 22 kph 10.0 miles16.1 km 29.5 in999 hPa 0.00 in0.00 mm --
00:53 00:53 Cloudy Cloudy 47°F8°C 44°F7°C 90% NNE 16 mphNNE 26 kph 10.0 miles16.1 km 29.53 in1000 hPa 0.00 in0.00 mm --